Total_Precipitation_Accumulation
0.03 0.02 0.02 0.02 0.03 0.03 0.02 0.02 0.01 0.01 0.02 0.02 0.02 0.02 0.03 0.02 0.03 0.04 0.05 0.06 0.15 0.14 0.13 0.13 0.18 0.14 0.05 0.06 0.04 0.05 0.06 0.07 0.07 0.07 0.09 0.11 0.13 0.14 0.17 0.21 0.23 0.24
0.02 0.02 0.02 0.02 0.02 0.01 0.01 0.01 0.01 0.03 0.04 0.03 0.02 0.02 0.02 0.02 0.02 0.03 0.03 0.03 0.04 0.04 0.04 0.10 0.06 0.14 0.10 0.11 0.09 0.12 0.11 0.09 0.10 0.08 0.08 0.10 0.12 0.12 0.12 0.14 0.18 0.21
0.04 0.01 0.01 0.01 0.02 0.03 0.02 0.01 0.02 0.02 0.02 0.02 0.02 0.02 0.03 0.03 0.03 0.03 0.03 0.04 0.05 0.09 0.05 0.11 0.10 0.11 0.15 0.12 0.06 0.09 0.10 0.11 0.13 0.12 0.14 0.12 0.11 0.12 0.13 0.13 0.14 0.18
0.02 0.01 0.02 0.02 0.02 0.03 0.02 0.02 0.02 0.03 0.01 0.02 0.02 0.02 0.03 0.04 0.04 0.05 0.05 0.06 0.06 0.06 0.08 0.07 0.08 0.08 0.10 0.06 0.17 0.12 0.13 0.10 0.12 0.13 0.13 0.18 0.16 0.14 0.13 0.13 0.15 0.17
0.01 0.02 0.02 0.02 0.02 0.02 0.02 0.02 0.02 0.01 0.02 0.02 0.03 0.02 0.03 0.03 0.04 0.06 0.06 0.06 0.06 0.08 0.16 0.09 0.08 0.08 0.06 0.06 0.07 0.11 0.07 0.07 0.06 0.07 0.10 0.14 0.15 0.15 0.15 0.16 0.18 0.20
0.01 0.02 0.02 0.02 0.01 0.01 0.03 0.02 0.02 0.05 0.08 0.04 0.04 0.02 0.04 0.04 0.05 0.05 0.06 0.07 0.06 0.07 0.08 0.24 0.12 0.10 0.14 0.07 0.06 0.05 0.07 0.05 0.07 0.06 0.06 0.07 0.08 0.10 0.13 0.16 0.20 0.20
0.01 0.01 0.01 0.02 0.02 0.03 0.03 0.04 0.06 0.09 0.05 0.06 0.12 0.10 0.05 0.05 0.04 0.05 0.06 0.07 0.08 0.08 0.07 0.12 0.08 0.10 0.06 0.07 0.09 0.07 0.08 0.07 0.07 0.07 0.06 0.06 0.07 0.07 0.08 0.13 0.15 0.15
0.01 0.01 0.02 0.02 0.03 0.03 0.03 0.04 0.12 0.09 0.11 0.07 0.11 0.04 0.09 0.05 0.06 0.07 0.07 0.08 0.09 0.09 0.08 0.08 0.13 0.10 0.07 0.08 0.07 0.06 0.07 0.08 0.09 0.12 0.07 0.08 0.06 0.06 0.06 0.07 0.12 0.14
0.02 0.02 0.02 0.02 0.02 0.02 0.07 0.04 0.07 0.09 0.09 0.08 0.06 0.06 0.07 0.09 0.09 0.11 0.11 0.11 0.11 0.09 0.09 0.11 0.12 0.13 0.10 0.13 0.14 0.13 0.10 0.08 0.07 0.07 0.06 0.06 0.06 0.05 0.05 0.06 0.08 0.11
0.03 0.02 0.02 0.03 0.07 0.05 0.04 0.04 0.05 0.06 0.06 0.06 0.08 0.09 0.09 0.09 0.09 0.09 0.10 0.10 0.11 0.11 0.15 0.10 0.11 0.09 0.11 0.14 0.15 0.12 0.14 0.16 0.12 0.09 0.08 0.09 0.10 0.07 0.06 0.06 0.07 0.10
0.03 0.03 0.03 0.03 0.02 0.03 0.02 0.03 0.09 0.05 0.05 0.11 0.09 0.11 0.17 0.11 0.10 0.09 0.10 0.11 0.11 0.09 0.08 0.07 0.08 0.07 0.08 0.08 0.08 0.09 0.11 0.12 0.12 0.12 0.12 0.12 0.11 0.11 0.12 0.11 0.10 0.08
0.02 0.02 0.02 0.02 0.02 0.06 0.03 0.04 0.05 0.06 0.07 0.11 0.17 0.08 0.13 0.12 0.13 0.12 0.13 0.11 0.10 0.10 0.09 0.12 0.09 0.09 0.09 0.11 0.08 0.07 0.07 0.08 0.09 0.09 0.10 0.11 0.12 0.13 0.12 0.13 0.13 0.12
0.01 0.02 0.02 0.02 0.03 0.04 0.05 0.07 0.07 0.07 0.08 0.10 0.11 0.13 0.16 0.16 0.17 0.14 0.14 0.13 0.13 0.12 0.12 0.11 0.11 0.10 0.09 0.09 0.08 0.09 0.09 0.09 0.09 0.09 0.08 0.09 0.09 0.10 0.10 0.11 0.12 0.13
0.02 0.03 0.03 0.04 0.06 0.14 0.07 0.07 0.08 0.09 0.11 0.11 0.14 0.15 0.20 0.20 0.21 0.17 0.16 0.15 0.16 0.15 0.14 0.12 0.13 0.12 0.11 0.10 0.09 0.09 0.09 0.11 0.10 0.12 0.13 0.12 0.10 0.09 0.09 0.10 0.11 0.12
0.02 0.03 0.05 0.07 0.06 0.08 0.08 0.08 0.10 0.14 0.12 0.15 0.19 0.23 0.20 0.21 0.22 0.21 0.20 0.21 0.17 0.17 0.18 0.15 0.16 0.14 0.12 0.13 0.13 0.12 0.14 0.17 0.16 0.17 0.16 0.16 0.15 0.14 0.13 0.12 0.11 0.11
0.04 0.06 0.08 0.10 0.09 0.10 0.10 0.09 0.11 0.13 0.18 0.17 0.23 0.24 0.24 0.20 0.21 0.22 0.24 0.33 0.22 0.20 0.19 0.21 0.19 0.16 0.14 0.15 0.19 0.27 0.32 0.32 0.32 0.30 0.27 0.26 0.25 0.22 0.19 0.16 0.14 0.13
0.06 0.08 0.09 0.09 0.11 0.10 0.11 0.13 0.14 0.16 0.19 0.23 0.23 0.24 0.26 0.30 0.27 0.30 0.29 0.29 0.28 0.28 0.31 0.27 0.25 0.20 0.17 0.24 0.41 0.55 0.51 0.49 0.44 0.37 0.31 0.29 0.27 0.24 0.22 0.17 0.14 0.13
0.08 0.09 0.10 0.11 0.12 0.13 0.15 0.18 0.18 0.20 0.21 0.22 0.29 0.27 0.31 0.31 0.37 0.38 0.31 0.29 0.29 0.29 0.31 0.28 0.29 0.23 0.26 0.42 0.52 0.67 0.80 0.65 0.59 0.49 0.39 0.33 0.28 0.25 0.21 0.19 0.17 0.15
0.09 0.11 0.13 0.14 0.15 0.22 0.17 0.20 0.22 0.23 0.24 0.28 0.31 0.32 0.36 0.39 0.41 0.35 0.34 0.34 0.34 0.38 0.32 0.30 0.29 0.25 0.32 0.50 0.57 0.80 0.93 0.94 0.77 0.59 0.45 0.34 0.28 0.25 0.22 0.20 0.18 0.20
0.12 0.15 0.17 0.18 0.18 0.17 0.19 0.23 0.26 0.28 0.29 0.36 0.35 0.36 0.40 0.41 0.39 0.40 0.39 0.43 0.43 0.43 0.40 0.38 0.35 0.32 0.38 0.63 0.82 0.96 1.10 1.12 0.81 0.68 0.53 0.42 0.33 0.28 0.24 0.22 0.21 0.23
0.16 0.22 0.24 0.20 0.19 0.19 0.22 0.24 0.27 0.27 0.28 0.31 0.36 0.40 0.43 0.45 0.45 0.45 0.46 0.48 0.49 0.56 0.52 0.50 0.42 0.40 0.57 0.83 0.89 1.02 1.06 1.34 0.96 0.88 0.72 0.54 0.41 0.35 0.32 0.29 0.25 0.23
0.19 0.21 0.22 0.24 0.21 0.21 0.26 0.28 0.28 0.29 0.35 0.34 0.39 0.41 0.41 0.42 0.38 0.38 0.38 0.39 0.37 0.40 0.45 0.44 0.34 0.39 0.63 0.84 0.92 1.10 1.28 1.19 1.10 0.83 0.66 0.56 0.46 0.40 0.35 0.31 0.27 0.27
0.20 0.22 0.23 0.22 0.22 0.25 0.26 0.29 0.30 0.29 0.30 0.32 0.37 0.33 0.30 0.28 0.29 0.27 0.29 0.33 0.33 0.34 0.36 0.32 0.30 0.34 0.50 0.76 0.83 1.05 1.43 1.49 1.24 0.86 0.65 0.53 0.43 0.38 0.35 0.33 0.30 0.28
0.20 0.23 0.26 0.23 0.25 0.26 0.24 0.23 0.23 0.25 0.28 0.28 0.34 0.32 0.31 0.30 0.29 0.30 0.29 0.30 0.33 0.33 0.33 0.35 0.31 0.30 0.42 0.60 0.73 0.97 1.09 1.06 1.00 0.92 0.67 0.53 0.46 0.39 0.37 0.37 0.31 0.33
0.24 0.22 0.24 0.24 0.25 0.22 0.21 0.22 0.23 0.25 0.27 0.28 0.30 0.30 0.30 0.28 0.29 0.30 0.29 0.29 0.30 0.31 0.33 0.37 0.36 0.32 0.36 0.57 0.79 1.01 1.05 1.03 0.97 0.90 0.79 0.65 0.59 0.54 0.45 0.37 0.31 0.28
0.22 0.20 0.20 0.23 0.24 0.21 0.20 0.21 0.22 0.25 0.23 0.26 0.26 0.25 0.27 0.25 0.25 0.25 0.26 0.28 0.31 0.37 0.38 0.38 0.37 0.36 0.39 0.52 0.77 0.82 0.99 0.89 0.75 0.72 0.75 0.70 0.66 0.59 0.61 0.54 0.42 0.37